Location: Martley
(52.2333°N, 2.3667°W)
Time: 14:15:01
(UTC+00:00)

Cosmos 2297 Rocket - Pass Details

Date: 11 December 2019
Orbit: 838 x 845 km, 71.0° (Epoch: 23 January)

Event Time Altitude Azimuth Distance (km) Brightness Sun altitude
Exits shadow 06:50:23 12° 318° (NW) 2,358 4.0 -11.0°
Maximum altitude 06:52:32 14° 342° (NNW) 2,204 4.0 -10.7°
Drops below altitude 10° 06:55:24 10° 12° (NNE) 2,472 4.5 -10.3°
Sets 06:59:14 0° 38° (NE) 3,411 5.5 -9.8°
